Morgantown, WV

12:48 AM EDT on April 24, 2017 (GMT -0400)
Morgantown Municipal-Hart

Weather History for KMGW - December, 2001

Change the Weather History Date:

Tuesday, December 18, 2001

  Actual Average Record
Temperature  
Mean Temperature 42 °F 34 °F  
Max Temperature 51 °F 42 °F 69 °F (2016)
Min Temperature 33 °F 26 °F 0 °F (1989)
Degree Days  
Heating Degree Days 23 31  
Month to date heating degree days 516  
Since 1 July heating degree days 1564  
Cooling Degree Days 0 0  
Month to date cooling degree days 0  
Year to date cooling degree days 814  
Moisture  
Dew Point 39 °F    
Average Humidity 85    
Maximum Humidity 100    
Minimum Humidity 62    
Precipitation  
Precipitation 0.62 in 0.09 in 2.24 in (1990)
Month to date precipitation 1.77  
Year to date precipitation 40.69  
Sea Level Pressure  
Sea Level Pressure 29.71 in    
Wind  
Wind Speed 9 mph (WNW)    
Max Wind Speed 12 mph    
Max Gust Speed 21 mph    
Visibility 9 miles    
Events Rain    
T = Trace of Precipitation, MM = Missing Value Source: NWS Daily Summary

Daily Weather History Graph

Daily Weather History Graph

Search for Another Location

Airport or City:

Trip Planner

Search our weather history database for the weather conditions in past years. The results will help you decide how hot, cold, wet, or windy it might be!

Date:

Astronomy

Dec. 18, 2001 Rise Set
Actual Time 7:35 AM EST 4:57 PM EST
Civil Twilight 7:04 AM EST 5:27 PM EST
Nautical Twilight 6:31 AM EST 6:01 PM EST
Astronomical Twilight 5:58 AM EST 6:34 PM EST
Moon 10:42 AM EST (12/18) 8:36 PM EST (12/18)
Length of Visible Light 10h 22m
Length of Day
9h 22m
Waxing Crescent, 14% of the Moon is Illuminated
Dec 18
Waxing Crescent
Dec 22
First Quarter
Dec 30
Full
Jan 5
Last Quarter
Jan 13
New

Hourly Weather History & Observations

Time (EST) Temp. Windchill Dew Point Humidity Pressure Visibility Wind Dir Wind Speed Gust Speed Precip Events Conditions
12:04 AM 51.8 °F - 50.0 °F 94% 29.39 in 4.0 mi North 11.5 mph 20.7 mph 0.08 in Rain Heavy Rain
12:25 AM 48.2 °F - 48.2 °F 100% 29.42 in 2.5 mi NW 10.4 mph 19.6 mph 0.21 in Rain Heavy Rain
12:32 AM 48.2 °F - 48.2 °F 100% 29.43 in 4.0 mi North 10.4 mph 18.4 mph 0.23 in Rain Rain
12:38 AM 48.2 °F - 46.4 °F 93% 29.43 in 8.0 mi NNW 8.1 mph 18.4 mph 0.23 in Rain Light Rain
12:46 AM 48.2 °F - 46.4 °F 93% 29.44 in 10.0 mi North 9.2 mph 17.3 mph 0.24 in Rain Light Rain
12:53 AM 48.0 °F - 46.9 °F 96% 29.44 in 8.0 mi North 9.2 mph - 0.25 in Rain Light Rain
1:04 AM 48.2 °F - 46.4 °F 93% 29.46 in 6.0 mi NNW 8.1 mph - 0.02 in Rain Rain
1:24 AM 46.4 °F 41.5 °F 46.4 °F 100% 29.47 in 4.0 mi NNW 10.4 mph - 0.09 in Rain Rain
1:33 AM 46.4 °F 42.4 °F 46.4 °F 100% 29.48 in 7.0 mi NW 8.1 mph - 0.10 in Rain Rain
1:40 AM 46.4 °F 41.5 °F 44.6 °F 93% 29.49 in 9.0 mi NW 10.4 mph 16.1 mph 0.11 in Rain Rain
1:53 AM 46.0 °F 40.6 °F 45.0 °F 96% 29.51 in 8.0 mi NNW 11.5 mph 19.6 mph 0.13 in Rain Rain
2:14 AM 46.4 °F 41.9 °F 44.6 °F 93% 29.53 in 7.0 mi NNW 9.2 mph 17.3 mph 0.06 in Rain Rain
2:53 AM 45.0 °F 41.2 °F 44.1 °F 97% 29.57 in 9.0 mi NW 6.9 mph - 0.13 in Rain Rain
3:03 AM 44.6 °F 40.7 °F 44.6 °F 100% 29.58 in 8.0 mi Variable 6.9 mph - 0.02 in Rain Rain
3:33 AM 44.6 °F 42.2 °F 42.8 °F 93% 29.59 in 10.0 mi Variable 4.6 mph - 0.05 in Rain Light Rain
3:46 AM 44.6 °F 40.7 °F 42.8 °F 93% 29.60 in 10.0 mi Variable 6.9 mph - 0.06 in Rain Light Rain
3:53 AM 45.0 °F 39.7 °F 42.1 °F 90% 29.61 in 10.0 mi NW 10.4 mph 20.7 mph 0.06 in Rain Light Rain
4:53 AM 44.1 °F 39.0 °F 42.1 °F 93% 29.65 in 10.0 mi NW 9.2 mph - 0.02 in   Overcast
5:10 AM 44.6 °F 39.2 °F 41.0 °F 87% 29.66 in 10.0 mi NW 10.4 mph 16.1 mph N/A   Overcast
5:53 AM 44.1 °F 40.1 °F 42.1 °F 93% 29.68 in 10.0 mi WNW 6.9 mph - 0.00 in   Overcast
6:19 AM 42.8 °F 37.5 °F 41.0 °F 93% 29.70 in 10.0 mi WNW 9.2 mph - 0.00 in   Overcast
6:26 AM 42.8 °F 38.0 °F 41.0 °F 93% 29.70 in 10.0 mi West 8.1 mph - 0.00 in   Overcast
6:46 AM 42.8 °F 37.5 °F 41.0 °F 93% 29.71 in 10.0 mi WNW 9.2 mph - 0.00 in Rain Light Rain
6:53 AM 43.0 °F 37.2 °F 41.0 °F 93% 29.72 in 10.0 mi WNW 10.4 mph - 0.00 in Rain Light Rain
7:53 AM 42.1 °F 37.7 °F 39.0 °F 89% 29.76 in 10.0 mi WNW 6.9 mph 18.4 mph 0.03 in Rain Light Rain
8:02 AM 42.8 °F 39.3 °F 39.2 °F 87% 29.76 in 10.0 mi Variable 5.8 mph - 0.00 in   Overcast
8:53 AM 43.0 °F 38.8 °F 39.0 °F 86% 29.79 in 10.0 mi Variable 6.9 mph - 0.00 in   Overcast
9:37 AM 42.8 °F 36.6 °F 37.4 °F 81% 29.80 in 10.0 mi WNW 11.5 mph 17.3 mph 0.00 in   Overcast
9:53 AM 42.1 °F 37.7 °F 37.0 °F 82% 29.81 in 10.0 mi Variable 6.9 mph 16.1 mph 0.00 in   Overcast
10:53 AM 42.1 °F 37.1 °F 34.0 °F 73% 29.83 in 10.0 mi West 8.1 mph - N/A   Overcast
11:33 AM 42.8 °F 38.0 °F 33.8 °F 70% 29.83 in 10.0 mi West 8.1 mph - N/A   Overcast
11:53 AM 41.0 °F 35.8 °F 35.1 °F 79% 29.84 in 10.0 mi West 8.1 mph - N/A   Overcast
12:00 PM 42.8 °F 38.0 °F 35.6 °F 76% 29.83 in 10.0 mi West 8.1 mph - N/A   Overcast
12:25 PM 41.0 °F 35.8 °F 35.6 °F 81% 29.83 in 10.0 mi West 8.1 mph 17.3 mph 0.00 in Rain Light Rain
12:53 PM 42.1 °F 35.7 °F 32.0 °F 67% 29.84 in 10.0 mi West 11.5 mph 19.6 mph 0.00 in   Overcast
1:04 PM 42.8 °F 38.0 °F 33.8 °F 70% 29.83 in 10.0 mi West 8.1 mph - N/A   Overcast
1:53 PM 43.0 °F 36.8 °F 30.9 °F 62% 29.85 in 10.0 mi WNW 11.5 mph 19.6 mph N/A   Overcast
2:53 PM 42.1 °F 38.4 °F 30.9 °F 65% 29.87 in 10.0 mi Variable 5.8 mph - N/A   Overcast
3:53 PM 42.1 °F 37.1 °F 33.1 °F 70% 29.88 in 10.0 mi West 8.1 mph - N/A   Overcast
4:39 PM 42.8 °F 39.3 °F 33.8 °F 70% 29.87 in 10.0 mi WNW 5.8 mph - N/A   Overcast
4:53 PM 42.1 °F 37.7 °F 33.1 °F 70% 29.89 in 10.0 mi Variable 6.9 mph - N/A   Overcast
5:19 PM 42.8 °F 38.0 °F 33.8 °F 70% 29.88 in 10.0 mi West 8.1 mph - N/A   Overcast
5:53 PM 41.0 °F 39.0 °F 32.0 °F 70% 29.90 in 10.0 mi Variable 3.5 mph - N/A   Overcast
6:53 PM 39.9 °F 36.7 °F 32.0 °F 73% 29.92 in 10.0 mi West 4.6 mph - N/A   Mostly Cloudy
7:31 PM 39.2 °F 35.9 °F 32.0 °F 75% 29.90 in 10.0 mi WSW 4.6 mph - N/A   Scattered Clouds
7:53 PM 39.0 °F 34.8 °F 32.0 °F 76% 29.93 in 10.0 mi WSW 5.8 mph - N/A   Scattered Clouds
8:53 PM 37.9 °F 35.5 °F 32.0 °F 79% 29.94 in 10.0 mi WSW 3.5 mph - N/A   Clear
9:53 PM 35.1 °F - 32.0 °F 89% 29.94 in 10.0 mi Calm Calm - N/A   Clear
10:53 PM 33.1 °F - 32.0 °F 96% 29.94 in 9.0 mi Calm Calm - N/A   Clear
11:53 PM 35.1 °F - 32.0 °F 89% 29.93 in 10.0 mi Calm Calm - N/A   Clear